Precipitable_Water
0.36 0.40 0.43 0.46 0.47 0.46 0.45 0.46 0.50 0.58 0.63 0.64 0.65 0.68 0.69 0.72 0.70 0.80 1.01 1.21 1.30 1.40 1.28 1.14 1.02 0.88 0.73 0.65 0.62 0.59 0.53 0.50 0.53 0.47 0.48 0.51 0.56 0.55 0.54 0.55 0.56 0.55 0.53
0.38 0.44 0.47 0.50 0.51 0.52 0.51 0.51 0.56 0.61 0.64 0.66 0.68 0.71 0.76 0.76 0.74 0.75 0.84 0.87 1.15 1.27 1.26 1.16 0.99 0.86 0.76 0.66 0.60 0.53 0.46 0.44 0.48 0.41 0.41 0.36 0.42 0.49 0.53 0.57 0.57 0.47 0.45
0.40 0.46 0.49 0.51 0.53 0.52 0.54 0.54 0.55 0.62 0.67 0.71 0.74 0.75 0.79 0.79 0.72 0.70 0.70 0.79 0.90 1.15 1.22 1.25 1.00 0.80 0.75 0.66 0.61 0.53 0.45 0.36 0.36 0.38 0.33 0.28 0.26 0.36 0.44 0.47 0.45 0.42 0.38
0.46 0.48 0.49 0.49 0.50 0.51 0.54 0.52 0.53 0.56 0.65 0.76 0.70 0.66 0.63 0.62 0.68 0.70 0.74 0.77 0.81 0.88 1.01 1.12 1.11 0.78 0.69 0.66 0.60 0.52 0.43 0.34 0.28 0.35 0.38 0.39 0.35 0.27 0.28 0.38 0.40 0.39 0.39
0.44 0.45 0.47 0.48 0.49 0.52 0.53 0.55 0.56 0.60 0.65 0.71 0.72 0.68 0.64 0.68 0.71 0.67 0.71 0.76 0.79 0.83 0.91 1.04 1.08 0.80 0.65 0.59 0.50 0.40 0.34 0.35 0.35 0.35 0.36 0.38 0.38 0.38 0.32 0.31 0.35 0.38 0.39
0.44 0.46 0.48 0.51 0.50 0.53 0.56 0.58 0.60 0.65 0.71 0.73 0.73 0.69 0.66 0.68 0.69 0.69 0.66 0.70 0.76 0.76 0.83 0.85 0.88 0.81 0.61 0.53 0.44 0.40 0.38 0.40 0.40 0.41 0.40 0.40 0.36 0.39 0.39 0.34 0.35 0.36 0.37
0.44 0.45 0.52 0.58 0.60 0.61 0.63 0.68 0.67 0.68 0.75 0.80 0.74 0.72 0.70 0.72 0.70 0.68 0.67 0.74 0.78 0.87 0.86 0.83 0.80 0.69 0.58 0.51 0.47 0.44 0.45 0.45 0.42 0.41 0.41 0.42 0.38 0.37 0.38 0.38 0.36 0.33 0.39
0.50 0.56 0.58 0.63 0.63 0.61 0.63 0.67 0.72 0.76 0.78 0.83 0.80 0.78 0.75 0.79 0.73 0.72 0.72 0.76 0.77 0.90 0.89 0.85 0.77 0.66 0.58 0.56 0.54 0.53 0.52 0.50 0.45 0.41 0.37 0.35 0.33 0.34 0.37 0.35 0.35 0.30 0.31
0.57 0.61 0.65 0.69 0.66 0.65 0.65 0.71 0.76 0.80 0.84 0.83 0.84 0.77 0.76 0.74 0.75 0.75 0.73 0.75 0.75 0.81 0.84 0.83 0.70 0.70 0.66 0.65 0.62 0.55 0.50 0.43 0.37 0.36 0.34 0.34 0.33 0.32 0.34 0.33 0.32 0.28 0.25
0.55 0.58 0.65 0.72 0.76 0.74 0.76 0.80 0.82 0.80 0.82 0.85 0.82 0.78 0.72 0.76 0.83 0.71 0.74 0.78 0.88 0.85 0.87 0.80 0.67 0.67 0.62 0.62 0.57 0.49 0.44 0.37 0.36 0.35 0.33 0.33 0.32 0.32 0.34 0.35 0.36 0.33 0.29
0.50 0.54 0.63 0.73 0.79 0.79 0.79 0.79 0.79 0.82 0.82 0.82 0.83 0.80 0.82 0.80 0.76 0.84 0.75 0.75 0.73 0.87 0.79 0.76 0.67 0.62 0.63 0.60 0.52 0.44 0.40 0.37 0.34 0.33 0.32 0.32 0.33 0.33 0.35 0.38 0.35 0.33 0.31
0.52 0.63 0.72 0.73 0.75 0.76 0.74 0.74 0.76 0.77 0.81 0.80 0.79 0.77 0.80 0.78 0.76 0.84 0.79 0.80 0.78 0.82 0.85 0.73 0.64 0.65 0.58 0.50 0.41 0.38 0.38 0.37 0.35 0.35 0.33 0.31 0.33 0.35 0.39 0.35 0.31 0.32 0.33
0.52 0.64 0.69 0.72 0.73 0.70 0.70 0.75 0.75 0.76 0.77 0.77 0.77 0.78 0.80 0.78 0.77 0.80 0.79 0.82 0.85 0.84 0.76 0.67 0.65 0.59 0.49 0.42 0.40 0.40 0.39 0.37 0.34 0.33 0.31 0.33 0.33 0.35 0.35 0.34 0.34 0.34 0.32
0.51 0.58 0.56 0.60 0.63 0.67 0.70 0.71 0.74 0.78 0.80 0.85 0.82 0.81 0.80 0.79 0.84 0.79 0.81 0.82 0.82 0.74 0.71 0.68 0.58 0.48 0.41 0.42 0.41 0.39 0.37 0.35 0.35 0.34 0.34 0.34 0.34 0.35 0.37 0.35 0.33 0.31 0.28
0.50 0.56 0.62 0.67 0.71 0.73 0.80 0.81 0.86 0.88 0.88 0.85 0.83 0.80 0.80 0.83 0.82 0.83 0.83 0.79 0.72 0.67 0.61 0.54 0.50 0.46 0.45 0.44 0.40 0.37 0.35 0.33 0.33 0.36 0.40 0.40 0.41 0.40 0.37 0.33 0.30 0.28 0.26
0.49 0.61 0.66 0.69 0.71 0.74 0.76 0.79 0.82 0.84 0.85 0.82 0.83 0.84 0.84 0.84 0.82 0.80 0.77 0.73 0.68 0.64 0.62 0.52 0.46 0.43 0.40 0.40 0.37 0.36 0.35 0.38 0.43 0.39 0.37 0.38 0.38 0.38 0.35 0.33 0.31 0.30 0.27
0.52 0.58 0.65 0.75 0.73 0.76 0.80 0.78 0.79 0.82 0.82 0.79 0.80 0.79 0.79 0.78 0.79 0.78 0.75 0.71 0.67 0.63 0.49 0.43 0.42 0.42 0.41 0.39 0.39 0.40 0.42 0.39 0.35 0.35 0.35 0.37 0.36 0.34 0.32 0.32 0.31 0.30 0.30
0.63 0.64 0.71 0.73 0.74 0.76 0.81 0.82 0.81 0.79 0.77 0.76 0.76 0.76 0.75 0.74 0.75 0.74 0.71 0.66 0.57 0.47 0.44 0.43 0.42 0.41 0.44 0.44 0.44 0.41 0.39 0.35 0.37 0.38 0.38 0.34 0.33 0.33 0.33 0.32 0.31 0.30 0.29
0.71 0.75 0.79 0.80 0.81 0.80 0.82 0.80 0.78 0.77 0.75 0.73 0.74 0.74 0.74 0.71 0.70 0.68 0.64 0.56 0.47 0.45 0.44 0.44 0.44 0.47 0.46 0.43 0.40 0.37 0.37 0.38 0.37 0.36 0.35 0.33 0.33 0.34 0.36 0.33 0.31 0.29 0.26
0.78 0.79 0.80 0.82 0.80 0.79 0.81 0.78 0.75 0.74 0.73 0.73 0.75 0.76 0.74 0.69 0.64 0.60 0.54 0.48 0.44 0.43 0.48 0.53 0.47 0.41 0.40 0.40 0.41 0.40 0.35 0.33 0.33 0.33 0.34 0.36 0.35 0.36 0.36 0.34 0.32 0.28 0.25
0.78 0.81 0.81 0.78 0.79 0.81 0.81 0.76 0.75 0.73 0.76 0.78 0.78 0.77 0.76 0.67 0.60 0.55 0.49 0.49 0.53 0.50 0.43 0.41 0.40 0.39 0.40 0.38 0.37 0.36 0.34 0.32 0.31 0.31 0.31 0.33 0.36 0.37 0.36 0.35 0.33 0.29 0.28
0.76 0.79 0.77 0.77 0.78 0.81 0.80 0.75 0.73 0.77 0.79 0.78 0.76 0.76 0.73 0.65 0.57 0.53 0.54 0.47 0.40 0.38 0.39 0.39 0.37 0.36 0.36 0.36 0.37 0.36 0.35 0.35 0.33 0.33 0.35 0.36 0.37 0.36 0.35 0.34 0.32 0.30 0.25
0.72 0.76 0.77 0.76 0.78 0.80 0.79 0.75 0.75 0.77 0.77 0.75 0.72 0.70 0.63 0.55 0.50 0.44 0.42 0.42 0.42 0.38 0.34 0.33 0.32 0.33 0.35 0.36 0.36 0.37 0.37 0.38 0.36 0.37 0.38 0.39 0.37 0.35 0.33 0.31 0.29 0.25 0.21
0.72 0.74 0.74 0.74 0.74 0.79 0.80 0.79 0.79 0.78 0.76 0.72 0.68 0.62 0.55 0.47 0.43 0.43 0.41 0.39 0.37 0.33 0.31 0.30 0.30 0.31 0.33 0.34 0.35 0.35 0.36 0.38 0.39 0.40 0.40 0.39 0.38 0.34 0.32 0.29 0.26 0.22 0.21
0.77 0.77 0.75 0.73 0.75 0.79 0.79 0.81 0.80 0.79 0.74 0.70 0.62 0.57 0.51 0.43 0.41 0.40 0.37 0.34 0.30 0.28 0.28 0.30 0.32 0.31 0.30 0.31 0.33 0.34 0.35 0.38 0.39 0.41 0.40 0.37 0.34 0.31 0.29 0.26 0.22 0.22 0.21
0.80 0.78 0.76 0.75 0.76 0.78 0.79 0.80 0.80 0.78 0.72 0.64 0.55 0.48 0.41 0.38 0.37 0.36 0.35 0.34 0.31 0.32 0.33 0.33 0.32 0.32 0.31 0.34 0.35 0.36 0.37 0.38 0.40 0.39 0.36 0.34 0.32 0.29 0.27 0.22 0.20 0.21 0.20
Wind_Speed
23 21 21 22 23 24 26 28 30 33 35 36 38 39 40 40 40 45 49 47 44 42 34 37 34 34 33 31 29 27 25 23 22 20 17 16 16 16 15 15 14 14 14
18 19 21 22 24 25 26 28 30 32 34 36 38 38 40 41 41 42 46 48 46 43 35 33 36 36 33 32 30 29 26 25 24 21 19 17 17 16 16 16 15 15 15
18 21 23 25 27 27 29 30 30 32 34 36 36 36 38 39 39 40 41 45 48 44 41 35 36 35 35 33 32 30 28 26 25 24 20 18 18 17 16 16 15 15 15
22 25 29 31 33 35 36 35 36 36 37 38 37 36 37 37 39 40 40 41 45 46 42 38 36 36 36 34 32 31 29 28 25 24 21 19 18 17 16 16 15 15 15
29 33 37 40 42 42 43 42 42 41 41 41 40 37 36 35 35 37 38 39 43 44 44 41 35 34 34 34 32 30 29 28 26 24 21 19 18 17 16 16 15 15 15
37 40 45 46 47 46 45 43 43 42 41 42 42 39 38 36 34 35 36 35 40 42 41 39 35 36 34 33 32 30 28 27 25 23 22 20 19 18 17 16 15 16 16
40 42 41 36 34 34 35 35 36 37 36 40 41 39 38 38 37 36 36 35 36 40 41 38 34 36 36 33 31 29 27 25 24 22 20 18 17 17 15 15 15 17 18
44 39 34 32 31 29 27 26 29 33 34 37 39 36 35 35 36 36 37 35 34 37 37 36 33 33 35 32 31 28 26 24 22 20 18 17 16 16 16 16 17 17 18
38 33 31 29 28 23 21 19 19 23 28 32 36 35 34 33 33 34 35 35 34 37 39 35 32 32 31 32 28 25 24 23 21 19 17 16 15 14 14 14 15 18 19
35 32 29 26 18 13 11 11 14 19 24 28 31 32 32 31 32 33 34 35 36 36 38 37 32 31 31 28 26 25 24 22 20 18 16 15 15 14 14 15 16 18 19
33 29 23 16 13 9 8 9 11 16 21 24 27 28 30 31 31 33 34 34 37 38 35 35 32 31 30 28 26 24 22 20 18 17 15 14 14 14 15 16 17 19 21
27 23 15 13 4 4 6 9 11 14 18 21 25 26 28 30 32 33 34 35 35 39 34 35 32 30 29 28 24 23 21 20 18 16 14 14 14 14 16 16 18 20 23
22 18 12 6 2 2 3 7 10 14 17 21 23 26 28 29 32 34 35 36 35 35 36 33 31 29 28 26 24 22 20 18 16 15 14 14 14 15 16 18 20 22 23
17 13 9 8 5 2 0 4 8 12 17 19 23 26 28 29 32 35 35 37 35 35 35 31 29 28 27 25 23 21 19 16 14 13 13 13 13 14 16 19 21 22 24
14 11 9 7 5 4 2 1 6 12 18 20 24 26 29 31 33 33 34 36 37 33 33 31 28 27 25 23 21 18 16 14 13 12 12 12 14 15 17 19 21 23 25
11 9 6 6 5 5 5 7 7 16 19 22 21 24 26 28 30 33 35 36 35 33 30 29 28 25 23 21 18 17 15 13 12 10 11 11 14 15 17 20 22 24 26
8 7 5 4 5 5 6 11 11 17 18 17 20 23 23 28 33 34 33 32 33 32 29 28 26 24 21 19 16 14 13 11 10 10 11 12 14 16 19 21 24 26 28
7 6 2 2 3 6 10 11 14 13 14 17 19 22 27 30 33 34 32 32 32 31 28 25 23 21 18 16 14 13 11 9 9 10 12 13 16 18 20 23 26 28 31
4 2 1 2 5 8 9 11 13 14 15 20 22 27 29 30 30 31 30 30 30 28 25 23 20 18 16 14 13 11 10 9 10 11 13 15 17 19 22 25 28 31 34
2 0 2 4 7 9 10 11 12 15 20 24 25 27 27 26 27 28 29 27 26 25 22 20 18 16 14 12 11 10 9 9 10 12 14 16 19 22 25 28 31 33 35
6 4 3 7 10 13 12 11 15 18 21 23 25 25 26 27 27 27 27 26 24 23 21 18 16 13 12 11 10 8 9 9 11 13 16 19 21 25 28 31 33 35 37
10 8 7 10 13 14 14 14 15 17 19 22 24 24 25 23 24 25 24 23 22 19 17 15 13 12 11 9 8 7 8 10 12 15 18 21 24 28 30 32 35 37 38
11 12 12 12 13 15 14 15 15 19 20 22 23 24 22 22 23 22 21 20 19 17 16 14 12 10 9 8 7 8 9 11 14 17 20 23 26 29 32 34 37 39 40
10 11 13 14 15 15 17 18 20 19 20 20 21 21 22 22 21 20 19 18 16 15 14 12 11 10 9 8 8 9 11 14 17 20 23 26 29 31 34 36 39 40 41
7 10 12 14 15 16 17 16 17 18 19 20 20 21 21 20 19 18 16 15 14 14 13 12 11 10 9 9 10 12 14 17 20 23 26 29 31 33 36 39 40 41 43
7 8 10 12 13 15 15 16 17 18 19 18 18 18 18 17 17 16 14 13 13 13 12 11 11 10 10 11 13 15 17 20 23 25 28 31 33 36 38 40 41 43 44
Wind_Direction
279 276 276 274 274 270 267 262 255 250 248 245 242 241 239 237 236 233 229 230 231 226 224 227 221 222 220 221 221 222 221 221 222 223 226 232 236 239 244 249 253 259 265
279 279 280 278 276 274 272 267 259 253 249 245 243 241 238 237 235 232 230 228 225 223 227 224 223 222 220 220 220 220 220 221 221 225 228 235 240 242 247 249 253 259 265
287 286 285 282 278 276 274 269 263 256 250 245 241 238 236 233 232 230 229 225 223 225 226 228 228 223 221 219 220 220 220 221 222 222 231 236 241 239 246 249 254 260 265
297 292 288 283 279 275 274 270 264 257 250 243 238 234 233 232 231 228 226 226 223 223 225 226 226 221 220 219 219 220 220 221 222 223 233 238 240 241 245 249 255 261 266
300 294 288 285 280 275 274 267 264 256 250 241 235 232 230 229 227 225 224 224 221 220 222 223 222 220 217 219 217 217 218 220 222 225 230 236 237 241 244 247 253 261 271
304 299 294 287 281 276 271 266 261 251 244 235 230 229 227 226 223 221 219 220 219 218 220 218 219 219 217 215 215 216 217 218 221 225 228 234 236 240 246 250 254 264 275
308 304 304 297 290 280 271 265 255 244 237 228 223 225 225 223 222 221 219 218 218 216 215 216 216 212 212 212 211 212 213 215 217 219 225 231 235 239 244 251 257 268 272
312 306 302 298 294 284 274 265 252 237 231 219 217 219 218 220 220 218 216 216 215 209 205 205 208 207 207 207 207 209 210 212 213 215 220 226 234 240 253 254 264 273 278
321 312 303 300 296 286 273 259 241 222 212 212 212 213 214 215 215 213 212 211 207 202 200 197 200 201 201 202 201 204 206 207 209 211 219 226 234 245 255 263 271 276 280
321 316 308 304 295 288 272 242 217 210 207 206 207 208 210 210 209 208 205 205 200 199 198 199 199 196 194 196 200 202 200 201 207 213 218 229 238 245 259 268 277 282 285
325 321 315 303 288 277 249 222 205 200 198 200 202 205 205 207 205 202 200 197 195 194 191 189 189 192 194 193 193 194 196 200 206 213 221 229 240 251 266 277 283 287 292
333 334 329 330 275 260 224 209 204 201 200 204 203 202 201 200 199 195 194 192 191 191 191 189 189 192 193 192 195 196 200 205 210 217 225 235 247 261 276 281 287 292 295
340 346 356 33 6 297 230 215 210 211 206 199 197 196 194 193 192 189 188 186 183 186 184 186 187 188 188 192 193 195 199 203 208 219 230 243 256 272 278 288 293 296 299
347 355 3 6 7 16 176 196 196 192 186 182 184 184 183 182 179 178 179 178 179 177 179 181 182 183 186 188 191 195 197 203 214 224 238 252 264 279 288 293 296 299 301
349 358 6 17 30 53 81 135 179 173 167 161 161 162 166 167 169 172 172 172 171 173 176 179 179 182 183 185 188 195 198 207 218 231 245 262 276 286 292 297 300 302 303
345 359 15 33 37 49 62 100 136 161 151 156 161 164 165 170 173 169 163 167 168 169 172 174 174 177 180 182 186 194 202 212 225 241 259 270 286 292 297 301 305 305 306
342 347 351 12 44 58 99 101 114 147 149 148 154 158 162 163 165 164 163 166 168 170 169 170 174 176 180 183 187 195 207 217 229 250 265 279 289 295 301 305 307 308 308
328 341 22 66 105 102 112 100 109 136 150 153 156 156 153 150 154 158 160 162 163 166 167 169 175 175 183 188 193 200 210 221 245 262 273 286 294 298 303 307 310 310 311
337 305 194 111 136 131 119 112 119 126 137 147 145 149 150 151 152 158 158 159 161 163 164 168 172 177 180 187 193 205 223 239 256 270 282 290 296 301 306 309 311 312 313
281 247 110 152 150 142 124 125 120 125 130 139 143 145 148 152 154 155 160 158 160 161 166 168 171 174 182 192 203 214 227 247 264 281 291 297 301 305 308 310 312 313 314
60 83 97 139 147 143 132 126 131 131 137 140 142 144 144 148 150 153 155 157 160 161 163 169 176 181 188 194 203 220 244 262 276 288 296 301 305 308 310 312 312 313 314
58 69 98 130 144 145 135 130 135 137 142 146 150 150 150 151 151 153 155 157 160 164 169 173 178 184 192 204 220 239 260 276 288 296 302 305 308 311 312 313 315 315 315
64 77 92 121 134 146 148 138 140 139 141 143 145 150 152 155 157 157 159 162 167 171 176 180 186 193 206 220 236 258 275 288 296 301 304 308 311 313 314 316 316 316 316
78 87 91 106 124 134 138 140 142 145 146 148 151 151 152 155 158 164 168 171 175 179 184 190 196 206 220 236 255 272 285 295 301 304 307 310 313 315 315 316 317 317 317
103 100 102 108 120 131 137 142 147 150 151 152 153 154 157 160 164 170 175 179 184 189 195 202 208 217 233 250 266 281 292 299 303 307 310 312 314 315 316 317 318 317 318
149 135 126 120 120 126 132 140 147 149 150 154 160 164 167 169 172 176 180 187 194 199 205 210 221 236 248 261 276 287 295 301 306 309 311 313 314 316 317 318 318 318 319